Time[GMT],air_temperature[C](-3m),wind_speed[m/s](-4m),wind_gust[m/s](-4m),wind_direction[degrees](-4m),visibility[m](-3m),barometric_pressure[millibars](-3m)
2004-10-01 22:00,13.0,3.2,3.8,324,2963,1022.51
2004-10-01 23:00,12.9,4.1,4.9,328,2965,1023.11
2004-10-02 00:00,13.0,3.7,4.4,330,2965,1023.35
2004-10-02 01:00,13.0,4.1,4.7,349,2965,1023.83
2004-10-02 02:00,13.0,3.6,4.4,344,2965,1024.13
2004-10-02 03:00,13.0,2.7,3.3,344,2965,1024.19
2004-10-02 04:00,13.1,1.5,1.9,336,2965,1024.07
2004-10-02 05:00,12.8,1.1,1.6,344,2965,1024.37
2004-10-02 06:00,12.8,1.3,1.7,336,2965,1024.49
2004-10-02 07:00,12.6,1.6,2.2,359,2965,1024.43
2004-10-02 08:00,12.7,1.5,1.9,318,2965,1024.67
2004-10-02 09:00,12.5,0.9,1.4,340,2965,1024.61
2004-10-02 10:00,12.8,1.4,2.0,318,2965,1025.03
2004-10-02 11:00,13.9,0.9,1.4,359,2955,1025.27
2004-10-02 12:00,14.6,0.2,0.8,254,2830,1025.45
2004-10-02 13:00,13.9,0.1,0.5,301,2963,1025.57
2004-10-02 14:00,13.4,0.3,0.7,346,2962,1025.51
2004-10-02 15:00,13.8,1.4,2.1, 58,2964,1024.97
2004-10-02 16:00,14.0,0.9,1.3, 94,2962,1024.73
2004-10-02 17:00,14.8,1.0,1.4,196,2963,1024.37
2004-10-02 18:00,15.4,2.1,2.6,139,2965,1023.71
2004-10-02 19:00,15.9,1.5,2.1,163,2942,1023.65
2004-10-02 20:00,16.6,1.4,2.1,164,2960,1023.59
2004-10-02 21:00,15.3,1.4,1.9,156,2962,1023.29
2004-10-02 22:00,14.1,1.4,1.8,144,2964,1022.81
2004-10-02 23:00,14.1,1.2,1.9,189,2965,1022.99
2004-10-03 00:00,14.3,2.0,2.6,126,2965,1022.45
2004-10-03 01:00,14.7,2.4,2.8,162,2965,1022.69
2004-10-03 02:00,14.5,1.9,2.3,155,2965,1022.57
2004-10-03 03:00,14.0,2.1,2.4,139,2965,1022.09
2004-10-03 04:00,14.8,2.8,3.2,142,2965,1021.43
2004-10-03 05:00,15.2,2.2,3.0,147,2965,1021.13
2004-10-03 06:00,15.3,2.7,3.4,166,2965,1020.83
2004-10-03 07:00,15.5,2.9,3.3,151,2965,1020.41
2004-10-03 08:00,15.6,2.6,3.1,162,2965,1020.11
2004-10-03 09:00,15.8,3.9,4.5,150,2965,1019.93
2004-10-03 10:00,15.8,3.2,3.8,155,2965,1019.99
2004-10-03 11:00,15.5,3.4,4.1,151,2965,1020.11
2004-10-03 12:00,15.1,2.5,3.2,164,2965,1020.35
2004-10-03 13:00,14.8,1.2,2.2,200,2955,1020.65
2004-10-03 14:00,15.0,1.8,2.3,131,2962,1020.47
2004-10-03 15:00,14.7,3.1,3.6,164,2914,1020.41
2004-10-03 16:00,15.0,3.5,4.4,166,2405,1020.05
2004-10-03 17:00,14.9,2.9,3.6,120,2870,1019.63
2004-10-03 18:00,14.7,1.7,2.7, 64,2810,1019.45
2004-10-03 19:00,15.1,3.0,3.6,106,2939,1018.91
2004-10-03 20:00,15.2,2.2,2.7,112,2953,1019.15
2004-10-03 21:00,15.2,2.6,3.5,110,2963,1019.03
2004-10-03 22:00,15.0,1.1,1.9,136,2960,1019.57
2004-10-03 23:00,15.7,3.5,4.2,135,2965,1019.63
2004-10-04 00:00,15.9,3.1,4.0,150,2916,1019.45
2004-10-04 01:00,15.3,0.9,1.4,149,2825,1019.63
2004-10-04 02:00,15.6,2.2,2.7,131,2853,1019.39
2004-10-04 03:00,15.7,3.0,3.6,143,2844,1019.27
2004-10-04 04:00,15.6,3.3,3.7,137,2706,1018.79
2004-10-04 05:00,15.6,1.2,2.5,238,2796,1018.91
2004-10-04 06:00,14.3,2.6,3.3,312, 311,1018.55
2004-10-04 07:00,13.5,2.2,2.8,336, 321,1018.01
2004-10-04 08:00,13.3,2.3,2.8, 11, 720,1017.77
2004-10-04 09:00,13.3,2.2,2.8, 22, 559,1018.01
2004-10-04 10:00,13.4,3.8,4.5,345,2845,1018.55
2004-10-04 11:00,13.7,4.0,5.0,343,1829,1018.73
2004-10-04 12:00,13.8,4.8,5.5,344,2765,1018.61
2004-10-04 13:00,14.5,3.5,4.3,344,2859,1018.49
2004-10-04 14:00,14.6,4.6,5.7,  1,2896,1018.31
2004-10-04 15:00,15.1,3.9,4.9, 10,2760,1017.65
2004-10-04 16:00,15.2,3.7,4.2, 45,2757,1017.11
2004-10-04 17:00,15.1,1.5,2.4, 37,2877,1016.45
2004-10-04 18:00,16.2,1.3,1.7, 50,2856,1015.79
2004-10-04 19:00,16.1,2.4,3.1, 98,2906,1015.55
2004-10-04 20:00,15.7,2.0,2.5, 74,2837,1015.25
2004-10-04 21:00,15.6,1.8,2.2, 19,2531,1014.77
2004-10-04 22:00,15.8,1.5,2.2, 40,2643,1014.59
2004-10-04 23:00,15.6,1.8,2.4, 31,2565,1014.53
2004-10-05 00:00,15.4,1.7,2.4, 41,2598,1014.35
2004-10-05 01:00,15.6,3.6,4.4,313,2702,1014.17
2004-10-05 02:00,15.2,3.9,4.5,331,2450,1013.87
2004-10-05 03:00,15.0,5.5,6.7,339, 809,1013.75
2004-10-05 04:00,14.2,7.7,9.1,312, 864,1013.87
2004-10-05 05:00,14.1,5.7,6.7,320,2420,1014.41
2004-10-05 06:00,14.5,6.9,8.7,304,2776,1014.47
2004-10-05 07:00,13.5,9.3,10.8,293,2671,1014.41
2004-10-05 08:00,13.4,6.8,8.2,310,2626,1014.53
2004-10-05 09:00,13.9,6.1,7.4,293,2730,1014.71
2004-10-05 10:00,13.9,6.1,7.4,296,2722,1015.07
2004-10-05 11:00,14.1,6.0,7.0,292,2682,1015.55
2004-10-05 12:00,14.4,6.6,7.8,285,2650,1016.33
2004-10-05 13:00,14.4,2.8,4.7,312,2651,1016.75
2004-10-05 14:00,13.8,5.1,6.4,324,2575,1017.23
2004-10-05 15:00,13.6,5.4,6.3,319,2583,1017.29
2004-10-05 16:00,12.7,9.3,11.1,324,2926,1017.77
2004-10-05 17:00,11.9,10.1,12.4,320,2904,1017.95
2004-10-05 18:00,12.2,8.9,10.9,327,2726,1018.67
2004-10-05 19:00,11.8,8.7,11.0,322,2444,1019.09
2004-10-05 20:00,11.7,9.1,10.4,326,2443,1019.69
2004-10-05 21:00,11.5,8.2,10.1,329,2444,1020.59
2004-10-05 22:00,11.1,8.3,9.8,314,2956,1021.43
2004-10-05 23:00,11.1,8.8,10.1,330,2965,1022.39
2004-10-06 00:00,11.1,8.5,10.5,337,2965,1022.99
2004-10-06 01:00,11.2,7.8,10.3,331,2965,1023.47
2004-10-06 02:00,11.3,7.6,9.6,335,2965,1023.89
2004-10-06 03:00,11.4,7.0,8.6,339,2965,1024.37
2004-10-06 04:00,11.4,7.2,9.2,334,2965,1024.43
2004-10-06 05:00,11.4,6.3,7.6,343,2965,1024.97
2004-10-06 06:00,11.1,6.7,8.6,355,2965,1025.09
2004-10-06 07:00,10.6,6.1,7.5,342,2965,1025.15
2004-10-06 08:00,10.6,5.0,6.6,353,2965,1025.57
2004-10-06 09:00,10.0,6.1,7.6, 20,2965,1026.29
2004-10-06 10:00,9.7,5.5,6.6, 13,2965,1026.83
2004-10-06 11:00,9.6,4.0,6.4, 21,2684,1027.13
2004-10-06 12:00,10.1,3.1,4.6,360,2315,1027.67
2004-10-06 13:00,9.5,3.2,4.7,351,2954,1028.09
2004-10-06 14:00,9.5,2.1,3.1,341,2928,1028.27
2004-10-06 15:00,9.5,1.3,2.6, 12,2963,1028.15
2004-10-06 16:00,9.8,1.1,2.5,331,2956,1027.85
2004-10-06 17:00,9.7,1.4,2.4,335,2965,1027.31
2004-10-06 18:00,10.0,1.4,2.9,288,2964,1027.13
2004-10-06 19:00,10.0,2.4,4.3,288,2962,1027.19
2004-10-06 20:00,10.2,3.9,5.6,286,2959,1026.95
2004-10-06 21:00,10.2,2.5,3.8,300,2965,1026.53
2004-10-06 22:00,9.9,2.8,4.4,264,2965,1026.71
2004-10-06 23:00,10.0,3.0,3.9,266,2965,1026.95
2004-10-07 00:00,10.1,2.9,4.2,268,2965,1027.13
2004-10-07 01:00,10.5,4.0,5.6,277,2965,1027.55
2004-10-07 02:00,10.8,3.8,5.5,272,2965,1027.55
2004-10-07 03:00,11.1,4.0,5.4,264,2965,1027.61
2004-10-07 04:00,11.2,3.4,4.5,273,2965,1027.43
2004-10-07 05:00,11.5,3.9,4.8,262,2965,1027.13
2004-10-07 06:00,11.7,3.8,4.5,258,2965,1026.47
2004-10-07 07:00,11.9,3.4,4.1,244,2965,1026.29
2004-10-07 08:00,12.3,3.4,4.4,252,2965,1026.41
2004-10-07 09:00,12.7,3.8,5.3,259,2965,1026.59
2004-10-07 10:00,12.5,4.3,5.2,221,2965,1026.89
2004-10-07 11:00,13.1,4.6,5.4,239,2965,1027.43
2004-10-07 12:00,13.3,3.9,4.7,254,1086,1027.97
2004-10-07 13:00,13.4,4.2,4.8,264,2332,1028.57
2004-10-07 14:00,13.5,3.4,4.5,258,2813,1028.87
2004-10-07 15:00,13.6,3.2,3.7,245,2901,1028.81
2004-10-07 16:00,13.7,3.7,4.4,250,2843,1028.75
2004-10-07 17:00,13.8,2.8,3.7,244,2719,1028.45
2004-10-07 18:00,14.0,3.2,3.7,257,2658,1028.27
2004-10-07 19:00,14.4,2.6,3.1,260,1982,1028.15
2004-10-07 20:00,14.6,1.7,2.1,254,2960,1028.15
2004-10-07 21:00,14.5,2.0,2.4,231,2965,1028.33
2004-10-07 22:00,13.8,2.8,3.3,218,2965,1028.69
2004-10-07 23:00,13.7,3.3,3.8,213,2965,1028.99
2004-10-08 00:00,13.7,3.5,4.1,223,2965,1029.29
2004-10-08 01:00,13.6,2.9,3.4,225,2965,1029.29
2004-10-08 02:00,13.6,2.9,3.6,224,2965,1029.47
2004-10-08 03:00,13.6,2.7,3.4,226,2965,1029.47
2004-10-08 04:00,13.5,2.1,2.5,243,2965,1029.59
2004-10-08 05:00,13.5,2.4,3.0,252,2965,1029.95
2004-10-08 06:00,13.3,1.6,2.1,241,2964,1029.77
2004-10-08 07:00,13.4,1.9,2.7,262,2965,1029.83
2004-10-08 08:00,13.3,1.3,1.6,220,2965,1029.71
2004-10-08 09:00,13.1,2.0,2.5,180,2965,1029.83
2004-10-08 10:00,13.0,2.2,2.6,185,2965,1029.95
2004-10-08 11:00,13.7,2.4,3.2,171,2956,1030.19
2004-10-08 12:00,13.9,3.4,4.1,179,2960,1030.61
2004-10-08 13:00,14.0,4.0,4.7,175,2966,1030.55
2004-10-08 14:00,14.1,4.1,4.8,176,2962,1030.43
2004-10-08 15:00,14.4,4.1,5.1,179,2965,1030.31
2004-10-08 16:00,14.4,3.2,3.9,188,2965,1029.83
2004-10-08 17:00,14.6,2.5,3.0,193,2963,1029.29
2004-10-08 18:00,14.9,2.3,2.8,180,2928,1028.75
2004-10-08 19:00,14.6,2.4,2.7,183,2438,1028.21
2004-10-08 20:00,15.0,1.7,2.4,190,2943,1028.03
2004-10-08 21:00,16.0,1.3,1.7,186,2951,1027.85
2004-10-08 22:00,14.4,1.2,1.6,192,2964,1028.03
2004-10-08 23:00,14.2,1.9,2.4,166,2963,1027.73
2004-10-09 00:00,14.5,2.2,2.5,161,2965,1027.91
2004-10-09 01:00,14.6,2.7,3.1,163,2965,1027.79
2004-10-09 02:00,14.6,2.3,2.9,167,2965,1027.79
2004-10-09 03:00,14.5,2.1,2.5,167,2965,1027.55
2004-10-09 04:00,14.4,2.3,2.8,162,2963,1027.07
2004-10-09 05:00,14.2,2.0,2.4,189,2965,1027.01
2004-10-09 06:00,14.2,2.5,2.9,184,2965,1026.41
2004-10-09 07:00,14.2,2.5,3.1,177,2965,1025.81
2004-10-09 08:00,14.4,3.4,3.8,164,2965,1025.39
2004-10-09 09:00,14.7,4.0,4.4,176,2965,1025.39
2004-10-09 10:00,14.7,3.4,3.8,174,2965,1025.21
2004-10-09 11:00,14.7,2.7,3.2,174,2963,1025.15
2004-10-09 12:00,15.8,2.4,2.8,156,2944,1025.27
2004-10-09 13:00,15.5,3.1,3.5,145,2963,1025.15
2004-10-09 14:00,15.5,3.2,3.7,158,2957,1024.85
2004-10-09 15:00,15.8,3.7,4.3,164,2963,1024.49
2004-10-09 16:00,15.9,4.1,4.8,168,2964,1023.89
2004-10-09 17:00,15.9,3.6,4.3,170,2963,1023.23
2004-10-09 18:00,15.9,3.6,4.1,170,2966,1022.75
2004-10-09 19:00,15.8,4.0,4.7,159,2964,1022.15
2004-10-09 20:00,16.1,4.8,5.4,151,2965,1021.55
2004-10-09 21:00,16.0,4.3,4.9,158,2962,1021.61
2004-10-09 22:00,15.9,4.9,5.4,153,2965,1021.31
2004-10-09 23:00,15.9,4.1,4.6,148,2965,1021.13
2004-10-10 00:00,15.8,4.0,4.7,157,2965,1020.83
2004-10-10 01:00,16.1,4.7,5.4,148,2965,1020.53
2004-10-10 02:00,15.9,3.1,4.0,152,2964,1020.23
2004-10-10 03:00,15.9,3.0,3.5,173,2963,1019.81
2004-10-10 04:00,16.0,3.3,4.2,177,2959,1019.21
2004-10-10 05:00,16.2,6.7,7.6,148,2915,1018.25
2004-10-10 07:00,15.8,4.1,4.6,159,2945,1017.41
2004-10-10 08:00,15.8,3.3,3.8,154,2963,1016.93
2004-10-10 09:00,15.8,3.4,4.0,151,2965,1016.57
2004-10-10 10:00,,,,,,
2004-10-10 11:00,16.1,5.5,6.2,144,2918,1015.85
2004-10-10 12:00,16.3,5.8,6.6,138,2742,1015.73
2004-10-10 13:00,16.4,5.5,6.3,132,2780,1015.73
2004-10-10 14:00,16.3,4.3,5.3,135,2668,1015.25
2004-10-10 15:00,16.1,3.3,3.7,130,2527,1014.59
2004-10-10 16:00,16.2,4.8,5.5,122,2620,1013.75
2004-10-10 17:00,16.0,3.7,4.8,105,2581,1012.37
2004-10-10 18:00,15.7,2.9,3.5,107,2583,1011.41
2004-10-10 19:00,15.9,3.9,4.4,113,2719,1010.74
2004-10-10 20:00,15.7,3.3,4.0,106,2680,1009.91
2004-10-10 21:00,15.6,3.9,4.2, 97,2799,1009.24
2004-10-10 22:00,16.0,4.4,5.0,108,2876,1009.07
2004-10-10 23:00,15.9,4.4,5.3,107,2869,1008.89
2004-10-11 00:00,15.8,2.6,3.0,107,2755,1008.58
2004-10-11 01:00,15.9,0.9,1.7, 23,2731,1008.46
2004-10-11 02:00,15.3,0.8,1.8, 64,2674,1008.70
2004-10-11 03:00,15.4,2.5,3.0, 30,2695,1008.16
2004-10-11 04:00,15.2,2.5,3.1, 29,2749,1008.04
2004-10-11 05:00,15.2,3.9,4.5, 28,2774,1007.56
2004-10-11 06:00,15.1,3.3,3.8, 23,2726,1007.14
2004-10-11 07:00,15.2,3.4,4.0, 17,2824,1006.96
2004-10-11 08:00,15.1,2.5,3.2,357,2701,1006.30
2004-10-11 09:00,14.8,2.8,3.5, 29,2539,1006.00
2004-10-11 10:00,15.0,3.1,4.2, 22,2690,1006.84
2004-10-11 11:00,14.9,2.6,3.3, 27,2324,1007.14
2004-10-11 12:00,15.2,5.2,6.2, 28,2789,1006.18
2004-10-11 13:00,15.4,7.7,9.1, 20,2919,1005.64
2004-10-11 14:00,15.5,8.3,9.8, 17,2549,1005.28
2004-10-11 15:00,15.3,9.6,11.0, 17,2782,1004.44
2004-10-11 16:00,15.1,9.2,10.9, 11,2886,1004.20
2004-10-11 17:00,15.1,9.0,10.9,344,2863,1003.06
2004-10-11 18:00,15.0,9.9,12.3,338,2698,1001.74
2004-10-11 19:00,14.6,11.3,13.3,345,2512,999.58
2004-10-11 20:00,14.1,14.3,17.6,345,2312,996.94
2004-10-11 21:00,13.1,15.0,17.8,343,1887,993.52
2004-10-11 22:00,12.9,14.6,18.4,340,1515,992.20
2004-10-11 23:00,12.3,16.1,21.1,342,1689,989.98
2004-10-12 00:00,11.8,16.0,21.0,338,1232,987.88
2004-10-12 01:00,11.4,15.7,21.0,332, 595,986.56
2004-10-12 02:00,11.4,15.0,19.2,331, 709,985.84
2004-10-12 03:00,10.9,17.2,21.8,331,1180,984.52
2004-10-12 04:00,10.7,16.8,22.3,323, 650,983.32
2004-10-12 05:00,10.3,17.9,21.8,313, 389,982.30
2004-10-12 06:00,10.2,18.6,22.6,310, 487,982.00
2004-10-12 07:00,10.2,19.3,24.8,299, 538,981.46
2004-10-12 08:00,10.4,18.0,23.4,296, 481,980.08
2004-10-12 09:00,11.4,16.7,20.7,305, 878,979.30
2004-10-12 10:00,12.1,14.5,19.2,312, 993,980.80
2004-10-12 11:00,12.4,12.8,16.9,311,1337,981.82
2004-10-12 12:00,12.2,13.0,17.0,304,1269,981.76
2004-10-12 13:00,12.2,11.8,14.2,308,1984,981.46
2004-10-12 14:00,11.7,12.4,15.4,312,1905,979.66
2004-10-12 15:00,11.3,13.7,17.2,318,1761,978.64
2004-10-12 16:00,11.4,14.1,17.2,313,2290,986.26
2004-10-12 17:00,11.1,14.2,17.9,312,1979,984.76
2004-10-12 19:00,11.4,12.0,14.7,317,2411,986.02
2004-10-12 20:00,11.2,11.5,14.9,317,2124,985.48
2004-10-12 21:00,11.4,11.0,13.4,309,2464,985.78
2004-10-12 22:00,11.2,11.0,13.1,307,2148,985.06
2004-10-12 23:00,10.9,10.0,12.4,298,1391,984.34
2004-10-13 00:00,10.6,10.1,12.4,292,2079,983.38
2004-10-13 01:00,10.5,9.9,11.6,293,1879,983.02
2004-10-13 02:00,10.8,9.4,11.7,300,2954,983.80
2004-10-13 03:00,10.8,9.8,11.6,303,2963,996.34
2004-10-13 04:00,,,,,,
2004-10-13 05:00,10.9,8.5,9.7,290,2962,997.00
2004-10-13 06:00,10.8,9.4,10.9,281,2814,996.94
2004-10-13 07:00,10.6,9.3,11.1,282,2965,995.92
2004-10-13 08:00,10.8,10.5,12.1,291,2965,996.76
2004-10-13 09:00,10.7,10.2,11.5,289,2965,996.88
2004-10-13 10:00,11.0,10.9,12.6,294,2958,997.30
2004-10-13 11:00,11.5,10.8,12.5,291,2964,999.58
2004-10-13 12:00,11.8,11.4,13.0,287,2944,999.82
2004-10-13 13:00,11.7,12.6,13.9,295,2940,1000.42
2004-10-13 14:00,11.9,12.6,13.4,292,2934,1001.26
2004-10-13 15:00,12.0,12.7,14.4,292,2936,1001.50
2004-10-13 16:00,12.1,13.2,15.4,290,2949,1001.92
2004-10-13 17:00,12.2,12.1,14.4,286,2592,1001.80
2004-10-13 18:00,12.2,13.6,15.4,282,2053,1002.22
2004-10-13 19:00,12.2,12.4,15.0,278,1735,1002.52
2004-10-13 20:00,12.7,13.7,16.5,292,2954,1002.70
2004-10-13 21:00,12.7,8.8,13.5,289,2966,1003.18
2004-10-13 22:00,12.6,8.7,13.8,296,2965,1004.08
2004-10-13 23:00,12.6,6.5,9.8,275,2965,1004.62
2004-10-14 00:00,12.7,5.7,9.7,276,2965,1005.40
2004-10-14 01:00,12.6,2.9,4.7,265,2965,1005.70
2004-10-14 02:00,12.6,2.6,3.3,251,2965,1005.88
2004-10-14 03:00,12.4,3.7,4.4,231,2965,1006.00
2004-10-14 04:00,12.3,4.2,8.3,226,2965,1006.18
2004-10-14 05:00,12.3,3.2,3.8,227,2965,1006.24
2004-10-14 06:00,12.5,3.3,4.4,239,2965,1006.60
2004-10-14 07:00,12.6,2.3,3.2,246,2965,1006.54
2004-10-14 08:00,12.5,1.2,1.9,243,2965,1006.24
2004-10-14 09:00,12.5,0.6,1.1,172,2965,1006.48
2004-10-14 10:00,12.7,2.1,2.8,133,2965,1006.72
2004-10-14 11:00,12.9,3.2,3.8,146,2965,1006.90
2004-10-14 12:00,13.2,3.3,3.8,129,2965,1007.20
2004-10-14 13:00,13.4,4.0,6.0,113,2958,1007.44
2004-10-14 14:00,13.5,4.9,5.8,114,2956,1007.38
2004-10-14 15:00,13.6,5.0,6.1,117,2956,1007.62
2004-10-14 16:00,13.8,5.6,8.4,107,2937,1007.02
2004-10-14 17:00,13.9,6.1,11.1,101,2956,1006.24
2004-10-14 18:00,13.9,6.2,11.3,100,2907,1006.06
2004-10-14 19:00,14.0,6.7,11.6, 99,2948,1005.88
2004-10-14 20:00,14.1,6.7,10.2, 98,2959,1005.76
2004-10-14 21:00,14.2,6.7,10.3, 82,2954,1005.64
2004-10-14 22:00,14.2,8.3,10.9, 87,2948,1005.46
2004-10-14 23:00,14.2,8.8,11.9, 87,2937,1005.34
2004-10-15 00:00,14.4,10.5,12.9, 91,2915,1005.82
2004-10-15 01:00,14.6,9.9,12.2, 93,2915,1005.64
2004-10-15 02:00,14.6,7.1,10.5, 99,2748,1005.64
2004-10-15 03:00,14.4,8.1,11.1, 87,2411,1004.98
2004-10-15 04:00,14.6,8.9,11.5, 95,2206,1004.68
2004-10-15 05:00,14.5,6.8,10.5, 78,1562,1004.14
2004-10-15 07:00,14.8,5.9,7.8, 92,2662,1003.72
2004-10-15 08:00,14.9,5.1,6.3, 85,2553,1002.40
2004-10-15 09:00,14.7,3.3,4.2,104,1928,1002.28
2004-10-15 10:00,15.1,5.0,6.9,134,1885,1002.40
2004-10-15 11:00,14.8,4.4,5.8,148,2211,1003.12
2004-10-15 12:00,14.8,4.7,5.6,160, 676,1003.90
2004-10-15 13:00,15.0,3.7,4.4,174,2262,1005.88
2004-10-15 14:00,14.7,3.8,4.3,171, 313,1004.62
2004-10-15 15:00,14.6,5.1,5.9,185, 147,1004.62
2004-10-15 16:00,14.4,5.2,6.3,186, 202,1003.12
2004-10-15 17:00,14.0,3.6,4.7,187, 150,1002.46
2004-10-15 18:00,14.1,4.1,4.7,188, 212,1001.62
2004-10-15 19:00,14.4,3.7,4.9,178, 170,1002.22
2004-10-15 20:00,14.4,3.8,4.7,179, 432,1001.02
2004-10-15 21:00,14.4,3.4,4.1,198, 179,1000.72
2004-10-15 22:00,,23.0,,236,,
2004-10-15 23:00,14.3,3.5,4.5,154,2166,999.10
2004-10-16 00:00,13.9,4.3,5.2,132,1500,998.08
2004-10-16 01:00,14.1,3.6,4.9,124,2087,998.02
2004-10-16 02:00,15.1,4.9,6.0,125,2275,1001.14
2004-10-16 03:00,15.3,5.8,6.7,132,2297,1002.76
2004-10-16 04:00,15.7,7.5,11.0,125,2437,1003.78
2004-10-16 05:00,15.8,10.1,11.7,125,2171,1002.52
2004-10-16 06:00,15.8,10.4,12.3,127,2206,1002.58
2004-10-16 07:00,15.8,8.5,11.7,128,2186,1000.60
2004-10-16 08:00,16.7,11.0,12.0,134,2279,999.82
2004-10-16 09:00,16.6,10.8,11.8,128,1961,999.40
2004-10-16 10:00,16.7,10.8,12.7,145,2132,998.44
2004-10-16 11:00,16.7,11.9,14.1,159,1934,997.42
2004-10-16 12:00,16.4,10.4,12.7,164,2280,994.78
2004-10-16 13:00,15.7,9.6,11.0,197,2472,998.08
2004-10-16 14:00,14.8,9.9,11.7,215,2550,1000.30
2004-10-16 15:00,14.5,8.6,10.4,195,2549,999.82
2004-10-16 16:00,14.2,7.6,10.1,218,2449,1001.98
2004-10-16 17:00,14.2,9.5,11.3,220,2306,1001.44
2004-10-16 18:00,14.1,9.0,10.7,223,2560,1002.28
2004-10-16 19:00,14.0,9.0,10.9,227,2638,1003.36
2004-10-16 20:00,14.0,9.4,11.4,231,2698,1002.46
2004-10-16 21:00,13.7,8.0,9.8,227,2596,1003.30
2004-10-16 22:00,13.7,5.5,7.2,234,2763,1003.90
2004-10-16 23:00,13.6,4.0,5.2,211,2807,1004.80
2004-10-17 00:00,13.4,3.4,4.6,172,2791,1005.94
2004-10-17 01:00,13.2,4.6,6.5,166,2805,1006.54
2004-10-17 02:00,13.4,6.5,8.8,148,2873,1005.82
2004-10-17 03:00,13.9,6.8,8.9,156,2927,1005.76
2004-10-17 04:00,14.2,5.9,7.5,149,2922,1005.28
2004-10-17 05:00,14.5,5.9,8.0,156,2882,1005.46
2004-10-17 06:00,14.3,3.6,6.0,188,2873,1005.28
2004-10-17 07:00,13.9,4.3,5.6,206,2823,1003.60
2004-10-17 08:00,13.5,3.8,5.1,193,2724,1005.22
2004-10-17 09:00,13.4,4.2,5.3,208,2789,1005.22
2004-10-17 10:00,13.5,4.4,5.8,185,2870,1005.64
2004-10-17 11:00,13.6,5.0,6.3,182,2927,1005.34
2004-10-17 12:00,13.8,7.1,8.7,195,2841,1007.44
2004-10-17 13:00,13.6,7.1,9.4,193,1083,1007.32
2004-10-17 14:00,13.5,7.3,8.8,207,2858,1007.32
2004-10-17 15:00,13.1,7.9,10.0,245,2784,1007.92
2004-10-17 16:00,13.1,9.4,11.6,241,2918,1008.10
2004-10-17 17:00,12.9,10.0,12.3,247,2939,1007.92
2004-10-17 18:00,12.9,10.3,12.3,247,2946,1008.22
2004-10-17 19:00,12.9,9.1,10.9,240,2889,1007.62
2004-10-17 20:00,12.8,8.8,10.5,241,2909,1006.84
2004-10-17 21:00,12.6,7.7,10.0,239,2931,1008.83
2004-10-17 22:00,12.6,8.4,10.1,234,2962,1009.24
2004-10-17 23:00,12.5,7.7,9.8,230,2964,1008.83
2004-10-18 00:00,12.6,7.4,9.2,228,2963,1009.07
2004-10-18 01:00,12.6,5.7,7.2,220,2960,1009.66
2004-10-18 02:00,12.6,5.6,7.8,227,2958,1009.72
2004-10-18 03:00,12.9,7.2,9.2,230,2934,1010.45
2004-10-18 04:00,12.8,8.4,10.7,225,2953,1010.93
2004-10-18 05:00,12.8,7.0,9.3,236,2947,1010.57
2004-10-18 06:00,12.7,8.0,9.7,254,2950,1010.86
2004-10-18 07:00,12.5,6.1,7.5,261,2956,1011.29
2004-10-18 08:00,12.5,4.8,6.7,262,2962,1011.71
2004-10-18 09:00,12.6,4.5,5.3,248,2962,1012.07
2004-10-18 10:00,12.6,5.5,6.7,258,2965,1012.67
2004-10-18 11:00,12.6,4.7,5.6,246,2965,1013.39
2004-10-18 12:00,12.4,6.0,7.4,265,2934,1013.75
2004-10-18 13:00,11.9,5.7,6.9,251,2943,1014.71
2004-10-18 14:00,12.0,7.0,8.3,266,2915,1015.31
2004-10-18 15:00,11.9,6.7,8.6,262,2281,1015.49
2004-10-18 16:00,,,, 45, 445,
2004-10-18 17:00,11.8,7.5,9.1,263,2664,1015.49
2004-10-18 18:00,11.9,6.8,9.4,268,2951,1015.79
2004-10-18 19:00,11.9,7.5,9.2,268,2956,1016.87
2004-10-18 20:00,11.7,7.6,9.6,276,2912,1017.41
2004-10-18 21:00,11.6,6.8,8.1,272,2888,1017.59
2004-10-18 22:00,11.5,6.4,7.8,267,2963,1017.83
2004-10-18 23:00,11.4,6.0,7.6,263,2965,1018.43
2004-10-19 00:00,11.5,6.3,7.6,274,2966,1019.33
2004-10-19 01:00,11.4,6.2,8.4,277,2966,1020.05
2004-10-19 02:00,11.3,5.7,7.6,271,2965,1020.29
2004-10-19 03:00,11.4,4.9,6.5,269,2966,1020.41
2004-10-19 04:00,11.4,4.9,6.9,275,2966,1020.41
2004-10-19 05:00,11.4,4.9,6.1,285,2965,1020.83
2004-10-19 06:00,11.2,3.7,4.7,309,2965,1019.99
2004-10-19 07:00,11.3,3.2,4.5,325,2965,1020.29
2004-10-19 08:00,11.3,3.4,4.9,318,2965,1021.19
2004-10-19 09:00,11.4,2.8,3.8,326,2965,1021.37
2004-10-19 10:00,11.4,2.0,2.7,327,2965,1021.37
2004-10-19 11:00,11.4,2.2,3.1,347,2965,1021.67
2004-10-19 12:00,11.5,1.5,2.5,  8,2965,1022.15
2004-10-19 13:00,11.6,0.8,1.6, 44,2959,1022.51
2004-10-19 14:00,12.3,0.1,1.0,116,2960,1022.39
2004-10-19 15:00,11.8,0.0,0.2,171,2963,1022.57
2004-10-19 16:00,11.3,2.3,4.2,183,2946,1022.39
2004-10-19 17:00,10.7,3.6,4.5,216,2965,1021.85
2004-10-19 18:00,10.4,4.0,4.7,206,2966,1021.79
2004-10-19 19:00,10.4,2.4,3.3,211,2965,1021.91
2004-10-19 20:00,10.3,1.4,2.5,216,2953,1022.21
2004-10-19 21:00,10.4,1.4,2.0,100,2965,1022.09
2004-10-19 22:00,10.3,1.7,2.7,114,2965,1022.15
2004-10-19 23:00,10.6,2.3,3.0, 61,2965,1022.09
2004-10-20 00:00,10.8,3.2,4.7, 84,2920,1021.37
2004-10-20 01:00,11.2,4.3,5.7, 66,2958,1021.43
2004-10-20 02:00,11.7,6.1,8.2, 64,2962,1020.89
2004-10-20 03:00,11.9,8.1,9.7, 63,2965,1022.09
2004-10-20 04:00,11.9,8.3,10.2, 57,2965,1021.67
2004-10-20 05:00,11.8,8.1,9.5, 57,2965,1020.89
2004-10-20 06:00,11.8,9.6,11.3, 59,2965,1018.97
2004-10-20 07:00,12.0,9.7,11.4, 66,2965,1019.57
2004-10-20 08:00,12.1,9.9,11.8, 49,2965,1019.09
2004-10-20 09:00,12.2,10.2,12.0, 51,2964,1018.19
2004-10-20 10:00,12.2,10.2,12.2, 51,2957,1018.25
2004-10-20 11:00,12.3,10.1,12.2, 50,2953,1018.19
2004-10-20 12:00,12.3,9.9,12.0, 57,2945,1019.09
2004-10-20 13:00,12.0,10.2,12.6, 51,2915,1019.27
2004-10-20 14:00,11.9,10.3,11.8, 43,2891,1018.91
2004-10-20 15:00,11.9,9.7,11.4, 46,2882,1019.45
2004-10-20 16:00,11.9,9.4,10.9, 50,2921,1018.67
2004-10-20 17:00,11.8,8.7,10.7, 49,2947,1018.01
2004-10-20 18:00,11.7,8.5,10.2, 47,2953,1019.03
2004-10-20 19:00,11.8,8.6,10.4, 54,2923,1018.67
2004-10-20 20:00,11.9,8.2,9.9, 60,2940,1018.67
2004-10-20 21:00,11.9,8.3,9.7, 44,2962,1018.67
2004-10-20 22:00,11.7,9.4,11.2, 59,2965,1018.79
2004-10-20 23:00,11.7,8.5,10.4, 55,2960,1018.85
2004-10-21 00:00,11.6,8.5,10.2, 44,2963,1019.09
2004-10-21 01:00,11.7,8.5,10.5, 55,2965,1019.45
2004-10-21 02:00,11.5,8.9,10.8, 52,2966,1019.45
2004-10-21 04:00,11.5,8.2,10.1, 64,2966,1019.09
2004-10-21 05:00,11.6,8.4,10.6, 70,2966,1018.61
2004-10-21 06:00,11.6,8.5,10.7, 48,2966,1018.43
2004-10-21 07:00,11.7,8.1,10.7, 51,2966,1018.37
2004-10-21 08:00,11.6,7.6,9.7, 45,2965,1018.55
2004-10-21 09:00,11.5,8.6,10.7, 47,2965,1019.03
2004-10-21 10:00,,,,,,
2004-10-21 12:00,11.2,8.8,10.4, 46,2939,1019.99
2004-10-21 13:00,11.3,8.4,10.3, 50,2941,1019.99
2004-10-21 14:00,10.9,9.4,11.7, 49,2867,1020.17
2004-10-21 15:00,10.8,8.0,9.9, 50,2919,1018.61
2004-10-21 16:00,10.5,7.8,9.4, 49,2934,1018.55
2004-10-21 17:00,10.5,7.3,9.7, 54,2952,1019.03
2004-10-21 18:00,10.6,6.6,8.9, 42,2946,1020.05
2004-10-21 19:00,10.7,7.6,10.5, 37,2962,1020.17
2004-10-21 20:00,10.8,7.1,9.1, 51,2960,1020.65
2004-10-21 21:00,10.6,8.9,11.2, 36,2910,1020.35
2004-10-21 23:00,11.0,7.5,9.4, 48,2966,1021.01
2004-10-22 00:00,11.0,8.0,9.8, 50,2951,1021.55
2004-10-22 01:00,,,,,,
2004-10-22 02:00,11.4,8.2,10.9, 57,2966,1021.31
2004-10-22 03:00,11.8,7.6,9.6, 63,2966,1020.83
2004-10-22 04:00,11.5,9.5,11.6, 77,2965,1020.11
2004-10-22 05:00,11.6,8.6,10.6, 68,2963,1020.77
2004-10-22 06:00,12.1,8.9,11.0, 51,2965,1020.23
2004-10-22 07:00,12.0,9.7,11.5, 40,2964,1019.93
2004-10-22 08:00,12.0,7.7,9.8, 61,2965,1019.93
2004-10-22 09:00,11.9,7.8,10.0, 56,2965,1019.81
2004-10-22 10:00,12.0,7.2,9.0, 54,2963,1020.23
2004-10-22 11:00,11.6,8.6,11.1, 52,2963,1021.43
2004-10-22 12:00,11.7,10.0,12.6, 56,2881,1022.21
2004-10-22 13:00,12.7,8.8,10.9, 56,2738,1021.19
2004-10-22 14:00,12.4,10.4,13.0, 65,2814,1021.43
2004-10-22 15:00,12.3,10.8,12.8, 65,2390,1022.09
2004-10-22 16:00,11.7,11.4,14.1, 61,2825,1020.95
2004-10-22 17:00,11.9,11.2,13.2, 64,2775,1021.55
2004-10-22 18:00,11.9,10.5,13.4, 59,2831,1019.45
2004-10-22 19:00,11.9,10.9,13.7, 58,2858,1019.69